Powrót do katalogu

CZ-6A DEB

AktywnyPO
NORAD 54354·DEBRIS·🇨🇳 China

Wystrzelony Nov 11, 2022 z Taiyuan Satellite Launch Center

Loading…

Następne Przeloty (najbliższe 24 godziny)

TLE

ŚwieżeSource: Space-Track

Epoka: Sep 14, 2026, 11:47 UTC

1 54354U 22151CZ  26257.49115781  .00009366  00000-0  11426-2 0  9990
2 54354  98.7152 354.4053 0094129   0.9086 359.2277 14.80445782203527

Śledź CZ-6A DEB w czasie rzeczywistym z AllMySat

Download on the App Store